Location: *
(46.1866°S, 178.5290°W)
Time: 17:58:12
(UTC+00:00)

Cosmos 1607 - Pass Details

Date: 19 May 2021
Orbit: 909 x 993 km, 65.0° (Epoch: 17 June)

Event Time Altitude Azimuth Distance (km) Brightness Sun altitude
Rises 06:46:52 0° 219° (SW) 3,585 7.4 -23.8°
Reaches altitude 10° 06:49:26 10° 223° (SW) 2,644 6.7 -24.2°
Maximum altitude 06:55:26 56° 299° (WNW) 1,104 4.5 -25.2°
Drops below altitude 10° 07:01:29 10° 16° (NNE) 2,665 6.1 -26.3°
Enters shadow 07:01:39 - 16° (NNE) 2,725 6.2 -26.3°
